Home > Weather > Cape Dorset > Past weeks

Flag for Canada Weather for the Past 2 Weeks in Cape Dorset, Nunavut, Canada

Now
-17 °F

Light snow. Overcast.


Feels Like: -27 °F
Forecast: -18 / -10 °F
Wind: 3 mph from West

Location: Cape Dorset

Current Time: Feb 6, 2016 at 5:20:58 AM

Latest Report: Feb 6, 2016 at 5:00 AM


Visibility: 9 mi

Pressure: 30.02 "Hg

Humidity: 76%

Dew point: -22 °F

Location of Cape DorsetLocation

Historic Weather in Cape Dorset — Graph

°F

Cape Dorset Temperature Yesterday

Maximum temperature yesterday: -11 °F (at 2:00 AM)
Minimum temperature yesterday: -18 °F (at 10:00 PM)
Average temperature yesterday: -15 °F

High & Low Weather Summary for the Past Weeks

 TemperatureHumidityPressure
High-2 °F (Jan 22, 12:00 PM)84% (Jan 22, 4:00 AM)30.14 "Hg (Jan 22, 4:00 AM)
Low-27 °F (Jan 26, 1:00 AM)62% (Jan 27, 3:00 PM)29.31 "Hg (Jan 26, 8:00 AM)
Average-13 °F78%29.73 "Hg
* Reported Jan 22 4:00 AM — Feb 6 4:03 AM, Cape Dorset, Weather by CustomWeather, © 2016

Note: Actual official high and low records may vary slightly from our data, if they occured in-between our weather recording intervals... More about our weather records

Advertising

Cape Dorset Weather History for the Previous 24 Hours

 ConditionsComfort  
Time TempWeatherWind HumidityBarometerVisibility
4:03 AM
Sat, Feb 6
-17 °FPassing clouds.3 mph76%30.03 "Hg9 mi
3:03 AM-17 °FPassing clouds.3 mph76%30.05 "Hg9 mi
2:00 AM-18 °FPassing clouds.6 mph83%30.05 "Hg9 mi
1:48 AM-18 °FPassing clouds.6 mph75%30.05 "Hg9 mi
1:00 AM-18 °FLight snow. Passing clouds.2 mph83%30.06 "Hg9 mi
12:00 AM-17 °FLight snow. Overcast.5 mph76%30.06 "Hg8 mi
11:00 PM
Fri, Feb 5
-17 °FOvercast.5 mph76%30.07 "Hg9 mi
10:00 PM-18 °FOvercast.3 mph83%30.09 "Hg9 mi
9:00 PM-17 °FLight snow. Clear.3 mph76%30.10 "Hg9 mi
8:01 PM-17 °FLight snow. Clear.3 mph76%30.11 "Hg9 mi
7:00 PM-17 °FClear.2 mph83%30.12 "Hg9 mi
6:00 PM-17 °FClear.No wind83%30.13 "Hg9 mi
5:00 PM-17 °FSnow flurries. Passing clouds.2 mph83%30.13 "Hg15 mi
4:00 PM-15 °FBroken clouds.No wind83%30.13 "Hg15 mi
3:00 PM-15 °FPartly sunny.No wind83%30.12 "Hg15 mi
2:00 PM-15 °FSnow flurries. Scattered clouds.No wind76%30.11 "Hg15 mi
1:00 PM-15 °FScattered clouds.2 mph83%30.12 "Hg15 mi
12:00 PM-17 °FSnow flurries. Scattered clouds.3 mph83%30.12 "Hg15 mi
11:00 AM-15 °FScattered clouds.3 mph76%30.13 "Hg15 mi
10:00 AM-15 °FScattered clouds.3 mph76%30.13 "Hg15 mi
9:00 AM-15 °FPassing clouds.3 mph83%30.13 "Hg15 mi
8:00 AM-13 °FLight snow. Passing clouds.2 mph76%30.13 "Hg15 mi
7:00 AM-13 °FLight snow. Passing clouds.No wind83%30.14 "Hg10 mi
6:00 AM-13 °FOvercast.2 mph83%30.12 "Hg9 mi
5:00 AM-13 °FOvercast.3 mph83%30.12 "Hg9 mi
Weather by CustomWeather, © 2016

See weather overviewHow to use our weather pages